Torna al catalogo

ONEWEB-0367

AttivoComunicazioniPO
NORAD 49293·PAYLOAD·🇬🇧 United Kingdom

Lanciato Oct 14, 2021 da Vostochny Cosmodrome

Loading…

Prossimi Passaggi (prossime 24 ore)

TLE

AggiornatoSource: CelesTrak SupGP

Epoca: Sep 14, 2026, 10:06 UTC

1 49293C 21090Q   26257.42131944  .00002465  00000+0  60705-2 0  2572
2 49293  87.9135 256.6414 0001958  86.0215 353.3143 13.20768804    17

Traccia ONEWEB-0367 in tempo reale con AllMySat

Download on the App Store